"Pseudo-MPEC" for P11JOvj

Created 2023 Sep 22 12:22:19 UT using Find_Orb

Click here for an explanation of pseudo-MPECs

 
 Astrometry: 
     P11JOvj* C2023 09 17u%9@e!AstrometryO,%@aJZ^V#U)ruHjHwq7K0OP$JpYyx%v_)VwF51
     P11JOvj  C2023 09 17_YShredacted;+(6OQclickh,%,'j\2Hhere`('_*Y'?H7aqIPV,F51
     P11JOvj  C2023 09 17@,7.8for9hxtX4,Zt4a4sART:Tkexplanation04Fs@f%1u=$=;xF51

Station data:
(F51) Pan-STARRS 1, Haleakala  (N20.707234 W156.255910)  US/Hawaii.
   Observers J. Bulger, T. Lowe, A. Schultz, M. Willman. Measurers K.
   Chambers, S. Chastel, T. de Boer, L. Denneau, J. Fairlamb, H. Flewelling,
   M. Huber, C.-C. Lin, E. Magnier, Y. Ramanjooloo, R. Wainscoat, R. Weryk.
   1.8-m Ritchey-Chrétien + CCD.

Orbital elements:  P11JOvj
   Perihelion 2023 Oct 8.62722 +/- 35.2 TT = 15:03:11 (JD 2460226.12722)
Epoch 2023 Sep 17.0 TT = JDT 2460204.5   Earth MOID: 0.0814      AutoNEOCP
M 349.48113682 +/- 20               (J2000 ecliptic)
n   0.48637148 +/- 0.33             Peri.  206.05246 +/- 60
a   1.60136615 +/- 0.725            Node   170.53279 +/- 58
e   0.3315219 +/- 0.254             Incl.    7.96619 +/- 4.8
P   2.03/740.16d           H 25.57  G  0.15   U 12.0  SR
q 1.07047804 +/- 0.233    Q 2.13225425 +/- 40.1
From 3 observations 2023 Sept. 17 (36.5 min); mean residual 0".11
Residuals in arcseconds: 
230917 F51  .10+  .05-    230917 F51  .19-  .10+    230917 F51  .10+  .05-    

Ephemerides (geocentric):
Date (UTC) HH   RA             Dec           delta  r     elong  mag " sig PA
---- --------  ------------   ------------  ------ ------ -----  --- --------
2023 09 22 12  01 20 11.884   -10 17 11.65  .08391 1.0815 156.9 21.4  57d  92
2023 09 22 13  01 20 32.037   -10 20 10.70  .08390 1.0814 156.8 21.4  58d  92
2023 09 22 14  01 20 52.195   -10 23 09.65  .08389 1.0814 156.7 21.4  58d  92
2023 09 22 15  01 21 12.357   -10 26 08.52  .08389 1.0813 156.7 21.4  58d  92
2023 09 22 16  01 21 32.523   -10 29 07.29  .08388 1.0813 156.6 21.4  58d  92
2023 09 22 17  01 21 52.693   -10 32 05.97  .08387 1.0812 156.5 21.4  58d  92
2023 09 22 18  01 22 12.867   -10 35 04.56  .08387 1.0812 156.5 21.4  58d  92
2023 09 22 19  01 22 33.044   -10 38 03.04  .08386 1.0811 156.4 21.4  59d  92
2023 09 22 20  01 22 53.226   -10 41 01.42  .08385 1.0810 156.3 21.4  59d  92
2023 09 22 21  01 23 13.411   -10 43 59.71  .08385 1.0810 156.2 21.4  59d  92
2023 09 22 22  01 23 33.599   -10 46 57.88  .08384 1.0809 156.2 21.4  59d  92
2023 09 22 23  01 23 53.791   -10 49 55.95  .08384 1.0809 156.1 21.4  59d  92
2023 09 23 00  01 24 13.986   -10 52 53.92  .08383 1.0808 156.0 21.4  59d  92
2023 09 23 01  01 24 34.184   -10 55 51.77  .08383 1.0808 156.0 21.4  59d  92
2023 09 23 02  01 24 54.385   -10 58 49.51  .08382 1.0807 155.9 21.4  60d  92
2023 09 23 03  01 25 14.589   -11 01 47.14  .08382 1.0807 155.8 21.4  60d  92
2023 09 23 04  01 25 34.795   -11 04 44.65  .08382 1.0806 155.8 21.4  60d  92
2023 09 23 05  01 25 55.004   -11 07 42.05  .08381 1.0806 155.7 21.4  60d  92
2023 09 23 06  01 26 15.215   -11 10 39.33  .08381 1.0805 155.6 21.4  60d  92
2023 09 23 07  01 26 35.429   -11 13 36.48  .08381 1.0804 155.5 21.4  60d  92
2023 09 23 08  01 26 55.645   -11 16 33.52  .08381 1.0804 155.5 21.4  60d  93
2023 09 23 09  01 27 15.863   -11 19 30.42  .08380 1.0803 155.4 21.4  60d  93
2023 09 23 10  01 27 36.083   -11 22 27.21  .08380 1.0803 155.3 21.4  60d  93
2023 09 23 11  01 27 56.304   -11 25 23.86  .08380 1.0802 155.3 21.4  61d  93
2023 09 23 12  01 28 16.528   -11 28 20.38  .08380 1.0802 155.2 21.4  61d  93
2023 09 23 13  01 28 36.753   -11 31 16.77  .08380 1.0801 155.1 21.4  63d  92
2023 09 23 14  01 28 56.979   -11 34 13.03  .08380 1.0801 155.0 21.4  63d  92
2023 09 23 15  01 29 17.207   -11 37 09.15  .08380 1.0800 155.0 21.4  63d  92
2023 09 23 16  01 29 37.436   -11 40 05.14  .08380 1.0800 154.9 21.5  63d  92
2023 09 23 17  01 29 57.666   -11 43 00.98  .08380 1.0799 154.8 21.5  63d  92
2023 09 23 18  01 30 17.896   -11 45 56.68  .08380 1.0799 154.8 21.5  63d  92
2023 09 23 19  01 30 38.128   -11 48 52.25  .08380 1.0798 154.7 21.5  63d  92
2023 09 23 20  01 30 58.360   -11 51 47.66  .08380 1.0798 154.6 21.5  63d  92
2023 09 23 21  01 31 18.593   -11 54 42.93  .08380 1.0797 154.6 21.5  63d  92
2023 09 23 22  01 31 38.827   -11 57 38.05  .08380 1.0797 154.5 21.5  63d  92
2023 09 23 23  01 31 59.060   -12 00 33.03  .08381 1.0796 154.4 21.5  63d  92
2023 09 24 00  01 32 19.294   -12 03 27.85  .08381 1.0796 154.3 21.5  63d  92
2023 09 24 01  01 32 39.528   -12 06 22.51  .08381 1.0795 154.3 21.5  63d  92
2023 09 24 02  01 32 59.762   -12 09 17.03  .08381 1.0795 154.2 21.5  63d  92
2023 09 24 03  01 33 19.996   -12 12 11.38  .08382 1.0794 154.1 21.5  63d  92
2023 09 24 04  01 33 40.229   -12 15 05.58  .08382 1.0794 154.1 21.5  63d  92
2023 09 24 05  01 34 00.462   -12 17 59.61  .08382 1.0793 154.0 21.5  63d  92
2023 09 24 06  01 34 20.694   -12 20 53.49  .08383 1.0792 153.9 21.5  63d  92
2023 09 24 07  01 34 40.926   -12 23 47.20  .08383 1.0792 153.8 21.5  63d  92
2023 09 24 08  01 35 01.156   -12 26 40.74  .08384 1.0791 153.8 21.5  63d  92
2023 09 24 09  01 35 21.386   -12 29 34.12  .08384 1.0791 153.7 21.5  63d  92
2023 09 24 10  01 35 41.615   -12 32 27.33  .08385 1.0790 153.6 21.5  63d  92
2023 09 24 11  01 36 01.843   -12 35 20.36  .08385 1.0790 153.6 21.5  63d  92